EHI
0 0 0 0 0 0 0 0 0 0 0 0 0 0 0 0 0 0 0 0 0 0 0 0 0 0 0 0 0 0 0 0 0 0 0 0 0 0 0 0 0 0 0
0 0 0 0 0 0 0 0 0 0 0 0 0 0 0 0 0 0 0 0 0 0 0 0 0 0 0 0 0 0 0 0 0 0 0 0 0 0 0 0 0 0 0
0 0 0 0 0 0 0 0 0 0 0 0 0 0 0 0 0 0 0 0 0 0 0 0 0 0 0 0 0 0 0 0 0 0 0 0 0 0 0 0 0 0 0
0 0 0 0 0 0 0 0 0 0 0 0 0 0 0 0 0 0 0 0 0 0 0 0 0 0 0 0 0 0 0 0 0 0 0 0 0 0 0 0 0 0 0
0 0 0 0 0 0 0 0 0 0 0 0 0 0 0 0 0 0 0 0 0 0 0 0 0 0 0 0 0 0 0 0 0 0 0 0 0 0 0 0 0 0 0
0 0 0 0 0 0 0 0 0 0 0 0 0 0 0 0 0 0 0 0 0 0 0 0 0 0 0 0 0 0 0 0 0 0 0 0 0 0 0 0 0 0 0
0 0 0 0 0 0 0 0 0 0 0 0 0 0 0 0 0 0 0 0 0 0 0 0 0 0 0 0 0 0 0 0 0 0 0 0 0 0 0 0 0 0 0
0 0 0 0 0 0 0 0 0 0 0 0 0 0 0 0 0 0 0 0 0 0 0 0 0 0 0 0 0 0 0 0 0 0 0 0 0 0 0 0 0 0 0
0 0 0 0 0 0 0 0 0 0 0 0 0 0 0 0 0 0 0 0 0 0 0 0 0 0 0 0 0 0 0 0 0 0 0 0 0 0 0 0 0 0 0
0 0 0 0 0 0 0 0 0 0 0 0 0 0 0 0 0 0 0 0 0 0 0 0 0 0 0 0 0 0 0 0 0 0 0 0 0 0 0 0 0 0 0
0 0 0 0 0 0 0 0 0 0 0 0 0 0 0 0 0 0 0 0 0 0 0 0 0 0 0 0 0 0 0 0 0 0 0 0 0 0 0 0 0 0 0
0 0 0 0 0 0 0 0 0 0 0 0 0 0 0 0 0 0 0 0 0 0 0 0 0 0 0 0 0 0 0 0 0 0 0 0 0 0 0 0 0 0 0
0 0 0 0 0 0 0 0 0 0 0 0 0 0 0 0 0 0 0 0 0 0 0 0 0 0 0 0 0 0 0 0 0 0 0 0 0 0 0 0 0 0 0
0 0 0 0 0 0 0 0 0 0 0 0 0 0 0 0 0 0 0 0 0 0 0 0 0 0 0 0 0 0 0 0 0 0 0 0 0 0 0 0 0 0 0
0 0 0 0 0 0 0 0 0 0 0 0 0 0 0 0 0 0 0 0 0 0 0 0 0 0 0 0 0 0 0 0 0 0 0 0 0 0 0 0 0 0 0
0 0 0 0 0 0 0 0 0 0 0 0 0 0 0 0 0 0 0 0 0 0 0 0 0 0 0 0 0 0 0 0 0 0 0 0 0 0 0 0 0 0 0
0 0 0 0 0 0 0 0 0 0 0 0 0 0 0 0 0 0 0 0 0 0 0 0 0 0 0 0 0 0 0 0 0 0 0 0 0 0 0 0 0 0 0
0 0 0 0 0 0 0 0 0 0 0 0 0 0 0 0 0 0 0 0 0 0 0 0 0 0 0 0 0 0 0 0 0 0 0 0 0 0 0 0 0 0 0
0 0 0 0 0 0 0 0 0 0 0 0 0 0 0 0 0 0 0 0 0 0 0 0 0 0 0 0 0 0 0 0 0 0 0 0 0 0 0 0 0 0 0
0 0 0 0 0 0 0 0 0 0 0 0 0 0 0 0 0 0 0 0 0 0 0 0 0 0 0 0 0 0 0 0 0 0 0 0 0 0 0 0 0 0 0
0 0 0 0 0 0 0 0 0 0 0 0 0 0 0 0 0 0 0 0 0 0 0 0 0 0 0 0 0 0 0 0 0 0 0 0 0 0 0 0 0 0 0
0 0 0 0 0 0 0 0 0 0 0 0 0 0 0 0 0 0 0 0 0 0 0 0 0 0 0 0 0 0 0 0 0 0 0 0 0 0 0 0 0 0 0
0 0 0 0 0 0 0 0 0 0 0 0 0 0 0 0 0 0 0 0 0 0 0 0 0 0 0 0 0 0 0 0 0 0 0 0 0 0 0 0 0 0 0
0 0 0 0 0 0 0 0 0 0 0 0 0 0 0 0 0 0 0 0 0 0 0 0 0 0 0 0 0 0 0 0 0 0 0 0 0 0 0 0 0 0 0
0 0 0 0 0 0 0 0 0 0 0 0 0 0 0 0 0 0 0 0 0 0 0 0 0 0 0 0 0 0 0 0 0 0 0 0 0 0 0 0 0 0 0
0 0 0 0 0 0 0 0 0 0 0 0 0 0 0 0 0 0 0 0 0 0 0 0 0 0 0 0 0 0 0 0 0 0 0 0 0 0 0 0 0 0 0
Wind_Speed
3 2 2 1 2 2 2 2 2 2 2 2 2 3 3 2 2 2 2 5 6 6 7 8 8 8 8 8 7 7 7 7 7 7 7 7 8 8 8 8 8 7 7
3 3 2 2 2 2 2 2 2 2 2 2 2 2 2 2 2 2 2 2 5 5 6 7 7 7 6 6 6 6 6 6 6 6 6 6 6 6 6 7 7 7 7
4 4 3 2 1 2 3 2 3 2 2 3 2 2 2 2 2 2 2 1 1 3 5 6 5 5 5 5 4 5 5 5 5 5 5 5 4 5 5 5 5 6 6
4 4 3 2 2 2 2 3 2 2 2 2 2 1 1 1 1 2 2 2 1 1 2 4 4 4 4 4 4 4 3 3 3 3 3 3 3 3 3 4 4 4 5
4 3 3 2 2 2 2 2 2 2 2 2 1 1 1 1 1 1 2 2 2 2 1 2 3 2 2 3 3 3 2 2 2 2 2 1 2 1 1 2 3 3 4
3 3 3 3 2 2 2 2 2 2 2 2 2 2 1 1 0 1 2 1 2 2 2 2 1 1 1 1 1 2 2 2 2 1 1 1 1 1 1 1 2 3 3
3 3 3 3 2 2 2 3 2 3 2 2 2 2 2 2 0 0 1 1 1 1 2 2 2 1 0 0 0 1 2 2 2 2 2 2 2 2 2 3 3 3 4
2 3 3 3 2 2 2 3 2 2 1 1 2 2 1 2 2 1 0 1 1 1 1 2 2 2 1 0 1 1 2 3 3 4 4 4 4 4 4 4 4 4 4
2 2 3 3 2 2 2 3 3 3 2 0 1 2 2 2 1 2 1 1 1 1 1 2 2 2 2 1 1 2 2 3 5 5 5 5 5 5 5 5 5 5 5
1 2 2 3 2 2 2 2 2 2 3 2 0 0 1 2 2 1 2 1 1 2 2 2 2 2 2 2 2 2 3 4 5 7 7 7 6 6 6 6 6 6 6
1 1 2 2 2 2 2 2 2 2 2 2 2 1 0 1 1 2 2 2 2 2 3 3 3 2 2 2 2 2 3 4 5 7 8 7 7 7 7 7 7 7 7
0 1 2 2 2 2 2 2 2 3 2 2 2 2 2 2 2 1 2 2 2 2 2 2 3 3 2 2 3 3 3 4 5 7 8 8 8 8 8 8 8 7 8
1 1 1 2 2 2 2 2 2 2 3 3 3 2 2 2 2 2 2 1 2 2 2 2 3 3 2 2 2 4 4 5 6 7 9 8 8 8 8 8 8 8 8
1 1 1 1 2 2 2 2 2 2 2 3 3 3 2 2 2 2 2 2 1 2 2 3 2 3 2 2 3 4 3 5 6 8 8 8 8 7 8 8 8 9 9
1 1 1 1 1 2 2 2 2 2 2 2 3 3 2 2 2 2 2 3 3 3 4 4 3 2 2 2 4 3 3 6 7 7 8 8 7 7 8 8 8 9 9
1 1 1 1 2 2 2 2 2 2 3 3 2 3 3 2 2 2 2 2 3 4 4 3 3 2 2 2 4 3 4 6 7 8 8 8 8 8 8 8 9 9 9
1 2 2 2 2 2 3 2 3 3 3 3 3 4 4 3 3 2 2 2 3 3 4 4 2 2 2 3 3 2 3 3 4 8 9 9 8 8 8 8 9 9 9
2 2 2 2 2 3 3 4 4 4 4 4 4 4 5 3 4 3 3 4 4 4 4 5 3 2 3 3 3 3 3 3 4 7 9 9 9 9 9 9 9 9 9
2 2 2 3 3 3 3 3 4 4 4 5 5 5 5 5 5 4 4 4 3 3 3 3 4 2 2 2 2 2 3 3 4 5 8 8 9 9 9 10 10 10 10
3 3 3 3 4 4 4 4 4 4 4 4 5 5 6 6 6 6 4 5 4 3 3 3 3 3 2 2 2 3 3 2 3 3 5 6 7 9 10 10 10 9 9
2 3 3 3 3 3 4 4 4 4 4 4 4 5 5 7 8 6 5 4 4 4 3 3 4 3 3 2 3 2 3 3 3 3 2 3 3 4 5 8 8 9 9
2 2 3 3 3 4 6 7 4 4 4 5 5 4 5 6 7 9 9 9 8 6 5 5 4 5 5 4 3 3 3 2 4 2 2 3 2 4 4 4 8 10 9
2 2 3 3 4 5 7 7 7 4 4 4 5 4 4 5 6 5 8 9 9 11 10 6 6 7 5 5 5 4 4 4 5 3 2 4 2 4 4 5 10 10 9
2 3 3 4 4 5 7 8 7 4 4 4 5 5 5 5 5 5 5 5 6 6 8 6 6 6 5 5 5 5 5 3 3 3 3 4 3 3 4 3 8 8 7
3 3 3 4 4 5 7 8 6 3 3 4 5 5 5 5 8 8 5 5 5 5 6 8 8 8 8 7 4 2 2 2 3 3 2 2 2 3 3 3 4 6 7
3 3 3 3 4 5 7 8 6 3 3 4 3 4 7 7 8 8 5 5 6 5 3 3 4 5 5 5 6 4 4 3 2 3 2 2 1 1 3 2 2 2 3
Wind_Direction
147 143 141 125 114 107 107 98 100 100 93 88 109 114 112 108 95 84 68 90 102 109 116 120 119 115 110 107 106 102 97 90 88 84 80 77 74 69 65 60 54 50 48
146 141 136 125 124 128 128 124 114 104 94 94 91 102 109 115 105 101 83 81 92 103 113 120 123 122 118 115 113 108 102 95 92 89 83 77 71 67 65 58 52 48 44
145 141 136 136 136 131 123 112 101 93 93 92 87 83 98 113 120 115 111 98 92 95 110 119 124 126 127 127 123 117 111 104 100 95 88 80 71 64 64 57 48 41 36
144 138 137 140 139 125 122 120 114 100 91 88 81 74 78 90 119 127 122 119 106 92 101 111 115 124 136 141 138 132 126 120 116 109 99 85 71 57 56 56 45 35 28
141 140 142 142 136 126 124 133 117 122 117 101 92 79 70 82 119 134 134 143 144 135 121 95 93 100 123 151 154 153 149 146 141 134 117 99 69 43 40 39 34 26 21
140 137 137 135 130 126 122 128 131 117 128 129 92 59 25 16 87 148 160 153 150 154 149 131 102 67 87 131 166 190 196 201 196 197 204 220 252 298 323 336 350 355 357
138 135 137 137 138 143 148 143 138 125 110 113 87 47 9 6 27 182 164 151 160 175 161 154 150 141 210 69 222 254 251 240 239 244 244 246 257 265 279 291 307 318 325
141 141 137 142 145 143 144 142 133 132 132 125 125 118 50 346 338 330 212 175 189 180 183 180 169 170 166 185 285 292 277 269 265 265 264 260 263 270 274 279 289 298 307
137 133 140 138 139 149 165 169 160 149 161 182 146 154 159 200 270 308 273 210 201 201 214 208 192 191 185 190 231 263 276 280 276 274 272 268 266 268 272 276 284 290 298
123 131 133 138 149 149 161 181 174 163 159 175 204 254 156 155 165 242 305 291 251 228 224 220 208 207 194 195 219 237 256 272 274 276 275 269 269 270 274 278 282 287 293
143 141 141 148 155 165 171 169 169 165 169 177 181 174 125 73 147 166 235 279 287 254 236 224 212 212 207 199 209 235 257 273 274 278 277 270 272 277 277 279 281 285 289
152 157 159 163 165 169 179 179 172 168 177 176 186 182 176 177 185 176 204 251 267 274 258 231 214 208 207 205 222 233 253 273 280 281 280 277 276 278 280 279 279 283 286
265 214 177 173 176 182 182 173 170 177 176 182 192 200 204 216 194 187 191 228 266 285 279 258 227 213 203 199 230 237 248 265 277 281 281 281 287 284 280 278 280 283 286
226 205 184 184 187 183 185 179 180 197 183 187 199 195 207 222 211 197 186 182 255 279 265 259 257 220 209 204 231 237 249 264 276 282 283 287 291 292 283 280 281 283 285
222 183 173 180 191 190 188 185 189 199 193 203 206 206 213 220 212 211 195 190 192 236 255 247 244 236 223 218 233 224 239 264 276 281 282 287 292 291 284 282 282 282 283
198 175 184 198 207 205 197 198 203 202 202 217 213 210 222 224 215 210 207 212 209 216 246 240 235 240 233 240 244 234 241 267 273 278 278 282 286 287 283 281 281 280 281
197 197 203 214 225 219 205 201 216 209 209 222 225 218 226 219 220 218 212 214 220 212 241 262 249 245 228 231 251 245 250 248 260 275 277 278 282 284 283 281 281 279 279
207 207 203 211 230 231 217 205 214 216 215 223 229 225 230 223 227 225 218 221 225 221 225 253 259 240 236 229 232 247 257 256 252 269 275 277 278 281 282 283 283 282 281
216 216 209 214 229 230 225 220 219 222 225 230 228 227 228 219 230 230 225 225 227 231 226 236 255 249 246 234 241 258 258 264 269 272 278 275 274 277 281 284 282 281 282
212 218 221 224 231 232 225 223 223 229 235 238 232 227 226 221 226 226 227 224 221 224 228 235 252 255 247 237 220 246 269 263 272 280 278 277 280 284 283 282 281 280 278
226 227 228 238 242 237 230 230 228 230 233 242 242 235 232 233 234 232 229 221 215 221 227 236 246 253 247 232 234 232 257 275 276 259 265 268 273 274 278 277 278 277 277
244 240 237 237 246 254 258 250 245 233 233 237 247 250 248 243 243 245 243 236 225 223 225 229 241 243 245 237 232 233 239 261 274 241 236 267 253 264 268 264 274 282 280
245 253 252 243 247 257 265 262 258 251 238 238 242 248 254 251 253 244 245 243 238 241 237 232 237 241 239 231 222 231 235 240 252 243 237 272 265 267 268 273 283 282 280
238 247 254 253 255 263 269 269 266 253 245 243 240 241 245 250 245 243 240 240 239 241 240 235 234 240 240 231 221 224 229 245 262 256 213 257 269 267 279 272 274 270 275
250 247 251 249 253 265 269 269 265 247 246 251 249 245 243 243 250 251 242 239 250 256 256 247 248 252 250 248 236 201 210 242 271 263 214 223 258 289 286 275 270 272 280
254 257 263 258 255 263 273 272 264 241 250 259 262 254 250 254 257 253 240 231 243 246 235 244 248 252 244 238 235 221 205 225 252 257 213 202 253 304 300 279 269 270 277